Portada
METAR-TAF:

METAR-TAF

Aeroports :

Harrisburg, Pennsilvània, Estats Units d'Amèrica

latitud: 40-13-02N, longitud: 076-51-05W, altitud: 106 m

Observació

L'informe es va fer fa 1 hora i 8 minuts, a les 00:56 UTC
Vent calma
Temperatura -1°C
Humitat 54%
Pressió 1021 hPa
Visibilitat: 16.1 km
Cel clar

METAR: KCXY 030056Z 00000KT 10SM CLR M01/M09 A3014 RMK AO2 SLP210 T10061089

Hora: 21:04 (02:04 UTC)


TAF: manca

Observacions i pronòstics meteorològics de més de 4000 aeroports (METAR i TAF).

Les estacions disponibles són els punts grocs i vermells al mapa.

Posi el ratolí al punt desitjat per veure el nom de l'estació.

Feu clic per veure les observacions i els pronòstics meteorològics.

Per canviar el mapa: feu clic els botons verds amb una creu de color negre per apropar; al botó verd amb un guió per allunyar la imatge; o en les fletxes verdes per a mapes adjacents.


METAR-TAF: